DW6933 Weather Reports


time (UTC)temp
C
wind
direction
speed
KPH
gust
KPH
rain 1hr
cm
rain 24hr
cm
rain mn
cm
humidity
%
barometer
mb
20260906124618 13 132 0.0 0.0 0.00 0.00 0.00 92 1020.5
20260906123105 13 132 0.0 0.0 0.00 0.00 0.00 92 1020.3
20260906121613 13 132 0.0 0.0 0.00 0.00 0.00 92 1020.1
20260906120005 13 132 0.0 0.0 0.00 0.00 0.00 91 1019.8
20260906114645 13 132 0.0 0.0 0.00 0.00 0.00 91 1019.7
20260906113113 13 132 0.0 0.0 0.00 0.00 0.00 91 1019.4
20260906111604 13 202 0.0 0.0 0.00 0.00 0.00 91 1019.5
20260906110109 13 178 0.0 0.0 0.00 0.00 0.00 90 1019.2
20260906104508 13 178 0.0 0.0 0.00 0.00 0.00 90 1019.2
20260906103110 13 178 0.0 0.0 0.00 0.00 0.00 90 1019.0
20260906101619 13 178 0.0 0.0 0.00 0.00 0.00 90 1019.0
20260906100103 13 178 0.0 0.0 0.00 0.00 0.00 89 1018.9
20260906094644 14 178 0.0 0.0 0.00 0.00 0.00 89 1018.9
20260906093008 14 178 0.0 0.0 0.00 0.00 0.00 89 1018.9
20260906091626 14 176 0.0 0.0 0.00 0.00 0.00 89 1018.8
20260906090006 14 176 0.0 0.0 0.00 0.00 0.00 89 1018.6
20260906084609 15 176 0.0 0.0 0.00 0.00 0.00 89 1018.4
20260906083116 15 175 0.0 0.0 0.00 0.00 0.00 89 1018.4
20260906081607 15 173 0.0 0.0 0.00 0.00 0.00 89 1018.3
20260906080114 15 173 0.0 0.0 0.00 0.00 0.00 89 1018.3
20260906074615 15 173 0.0 0.0 0.00 0.00 0.00 89 1018.2
20260906073115 15 173 0.0 0.0 0.00 0.00 0.00 88 1018.0
20260906071607 15 173 0.0 0.0 0.00 0.00 0.00 87 1018.1
20260906070113 15 173 0.0 0.0 0.00 0.00 0.00 86 1018.2
20260906064603 16 173 0.0 0.0 0.00 0.00 0.00 85 1018.3
20260906063112 16 173 0.0 0.0 0.00 0.00 0.00 84 1018.2
20260906061507 16 173 0.0 0.0 0.00 0.00 0.00 83 1018.0
20260906060116 17 173 0.0 0.0 0.00 0.00 0.00 82 1018.0
20260906054619 17 173 0.0 0.0 0.00 0.00 0.00 82 1018.0
20260906053109 17 173 0.0 0.0 0.00 0.00 0.00 80 1017.8
20260906051615 18 144 0.0 0.0 0.00 0.00 0.00 80 1017.7
20260906050136 18 84 0.0 0.0 0.00 0.00 0.00 80 1017.6
20260906044609 18 37 0.0 1.6 0.00 0.00 0.00 80 1017.4
20260906043119 19 153 0.0 0.0 0.00 0.00 0.00 80 1017.4
20260906041609 19 60 0.0 0.0 0.00 0.00 0.00 80 1017.2
20260906040141 20 62 0.0 0.0 0.00 0.00 0.00 79 1017.2
20260906034609 20 149 0.0 0.0 0.00 0.00 0.00 80 1017.1
20260906033118 20 108 0.0 3.2 0.00 0.00 0.00 81 1017.1
20260906031607 20 128 0.0 1.6 0.00 0.00 0.00 82 1017.1
20260906030114 20 115 0.0 3.2 0.00 0.00 0.00 84 1017.0
20260906024505 20 283 0.0 0.0 0.00 0.00 0.00 85 1017.0
20260906023108 20 113 0.0 0.0 0.00 0.00 0.00 86 1016.4
20260906021622 20 147 0.0 0.0 0.00 0.00 0.00 88 1016.4
20260906020005 20 84 0.0 1.6 0.00 0.00 0.00 89 1016.5
20260906014613 20 334 0.0 0.0 0.00 0.00 0.00 89 1016.3
20260906013120 20 334 0.0 0.0 0.00 0.00 0.00 88 1016.2
20260906011612 21 334 0.0 0.0 0.00 0.00 0.00 87 1016.1
20260906010121 21 334 0.0 0.0 0.00 0.00 0.00 87 1015.7
20260906004608 21 334 0.0 0.0 0.00 0.00 0.00 85 1015.6
20260906003112 22 334 0.0 0.0 0.00 0.00 0.00 84 1015.5
20260906001503 23 334 0.0 0.0 0.00 0.00 0.00 83 1015.5
20260906000108 23 334 0.0 0.0 0.00 0.00 0.00 82 1015.5
20260905234621 23 70 0.0 0.0 0.00 0.00 0.00 81 1015.3
20260905233113 24 70 0.0 0.0 0.00 0.00 0.00 81 1015.5
20260905231615 24 208 0.0 0.0 0.00 0.00 0.00 81 1015.4
20260905230118 25 19 0.0 0.0 0.00 0.00 0.00 78 1015.4
20260905224506 25 57 0.0 4.8 0.00 0.00 0.00 76 1015.1
20260905223109 25 334 0.0 12.9 0.00 0.00 0.00 77 1015.1
20260905221515 24 90 0.0 0.0 0.00 0.00 0.00 79 1015.0
20260905220109 24 199 0.0 4.8 0.00 0.00 0.00 81 1014.9
20260905214502 23 17 0.0 0.0 0.00 0.00 0.00 83 1014.9
20260905213110 23 277 0.0 0.0 0.00 0.00 0.00 83 1014.8
20260905211614 23 70 0.0 0.0 0.00 0.00 0.00 83 1014.7
20260905210116 23 98 0.0 14.5 0.00 0.00 0.00 82 1014.8
20260905204610 23 120 3.2 16.1 0.00 0.00 0.00 83 1014.8
20260905203003 23 93 0.0 11.3 0.00 0.00 0.00 83 1015.0
20260905201610 23 104 0.0 11.3 0.00 0.00 0.00 83 1015.1
20260905200154 23 360 0.0 9.7 0.00 0.00 0.00 85 1015.0
20260905194619 23 47 0.0 3.2 0.00 0.00 0.00 85 1015.0
20260905193113 23 34 0.0 6.4 0.00 0.00 0.00 85 1015.1
20260905191506 23 95 1.6 8.0 0.00 0.00 0.00 84 1015.2
20260905190110 23 115 0.0 9.7 0.00 0.00 0.00 85 1015.1
20260905184517 23 351 0.0 1.6 0.00 0.00 0.00 85 1015.2
20260905183117 23 41 0.0 4.8 0.00 0.00 0.00 85 1015.1
20260905181613 23 341 0.0 4.8 0.00 0.00 0.00 85 1015.1
20260905180112 23 350 0.0 8.0 0.00 0.00 0.00 86 1015.2
20260905174612 23 5 0.0 0.0 0.00 0.00 0.00 87 1015.1
20260905173101 23 230 0.0 4.8 0.00 0.00 0.00 88 1015.1
20260905171609 22 32 0.0 4.8 0.00 0.00 0.00 89 1015.3
20260905170120 22 238 0.0 6.4 0.00 0.00 0.00 89 1015.4
20260905164606 22 11 0.0 1.6 0.00 0.15 0.00 89 1015.4
20260905163119 22 355 0.0 9.7 0.00 0.15 0.00 89 1015.3
20260905161611 22 8 0.0 0.0 0.00 0.15 0.00 88 1015.2
20260905160117 22 138 0.0 0.0 0.00 0.15 0.00 89 1015.2
20260905154504 22 61 0.0 4.8 0.00 0.28 0.00 90 1015.1
20260905153112 22 97 0.0 0.0 0.00 0.28 0.00 90 1015.1
20260905151617 22 326 0.0 1.6 0.00 0.28 0.00 89 1015.1
20260905150107 22 176 0.0 0.0 0.00 0.28 0.00 89 1015.1
20260905144612 22 97 0.0 1.6 0.00 0.36 0.00 89 1014.7
20260905143105 22 63 0.0 0.0 0.00 0.36 0.00 89 1014.7
20260905141613 22 99 0.0 3.2 0.00 0.36 0.00 90 1014.7
20260905140123 22 118 0.0 0.0 0.00 0.36 0.00 91 1014.5
20260905134611 22 185 0.0 0.0 0.00 0.53 0.00 92 1014.5
20260905133113 22 7 0.0 0.0 0.00 0.53 0.00 92 1014.4
20260905131505 22 109 0.0 3.2 0.00 0.53 0.00 93 1014.2
20260905130114 21 88 0.0 0.0 0.00 0.53 0.00 93 1014.2